Tracking 35274 objects as of 11-Sep-2026
HD Live streaming from Space Station
objects crossing your sky now

STARLINK-34570

Track STARLINK-34570 now!
10-day predictions
STARLINK-34570 is classified as:


NORAD ID: 64860
Int'l Code: 2025-152U
Launch date: July 19, 2025
Source: United States (US)
Launch site: AIR FORCE WESTERN TEST RANGE (AFWTR)
Your satellite tracking list
Your tracking list is empty




NASA's NSSDC Master Catalog

Two Line Element Set (TLE):
1 64860U 25152U   26254.52145318  .00020040  00000-0  62106-3 0  9991
2 64860  97.2848 105.1517 0002208  98.4158 261.7335 15.33461330 63444
Source of the keplerian elements: AFSPC